Weather Roundup
Issued by NWS Chicago, IL

Home | Current Version | Previous Version | Graphics & Text | Print | Product List | Glossary On
Versions: 1 2 3 4 5 6 7 8 9 10 11 12 13 14 15 16 17 18 19 20 21 22 23 24 25 26 27 28 29 30 31 32 33 34 35 36 37 38 39 40 41 42 43 44 45 46 47 48 49 50
000
NZUS59 KLOT 300404
HRRLOT

CHICAGO AREA WEATHER ROUNDUP
NATIONAL WEATHER SERVICE CHICAGO/ROMEOVILLE IL
1100 PM CDT SUN MAY 29 2016

NOTE: "FAIR" INDICATES FEW OR NO CLOUDS BELOW 12,000 FEET WITH NO
SIGNIFICANT WEATHER AND/OR OBSTRUCTIONS TO VISIBILITY.

* THESE STATIONS ARE NOT UNDER NWS QUALITY CONTROL. THEY ALSO MAY NOT
  REPORT WEATHER SUCH AS PRECIPITATION OR FOG.

ILZ005-006-012>014-019>023-300500-
NORTHEAST ILLINOIS

CITY           SKY/WX    TMP DP  RH WIND       PRES   REMARKS
OHARE          PTCLDY    70  58  65 W6        30.00R
MIDWAY         PTCLDY    73  57  57 W6        30.00R
AURORA         CLEAR     66  61  84 W3        30.02R
LANSING*       CLEAR     66  56  71 CALM      30.01R
WAUKEGAN       MOCLDY    70  58  65 W3        29.98S
DUPAGE AIRPORT CLEAR     66  57  72 W5        30.00S
WHEELING       CLEAR     71  56  58 W3        30.00S
MORRIS*        CLEAR     67  56  66 W5        30.01S
$$

WIZ051-052-058>065-066-070>072-300500-
SOUTHEAST WISCONSIN

CITY           SKY/WX    TMP DP  RH WIND       PRES   REMARKS
MILWAUKEE      PTCLDY    70  58  65 SW8       29.97S
KENOSHA*       CLEAR     65  58  78 W5        29.99R
RACINE*        CLEAR     69  57  65 W6        29.99S
BURLINGTON     CLEAR     62  58  87 SW3       29.99S
$$

INZ001>003-010>013-019-020-300500-
NORTHWEST INDIANA

CITY           SKY/WX    TMP DP  RH WIND       PRES   REMARKS
GARY*          NOT AVBL
MICHIGAN CITY* NOT AVBL
RENSSELAER*    NOT AVBL
VALPARAISO     CLEAR     66  57  72 W5        30.02R
$$

LMZ740>746-300500-
SOUTHERN LAKE MICHIGAN

STATION/POSITION TIME  SKY/WX   TEMP WIND        PRES    VSBY
                                AIR  DIR/SP/G
                 (UTC)          (F)  (DEG/KT/KT) (MB)    (MI)
HARRISON CRIB    0300            77  260/ 10/ 12   N/A
BURNHAM HARBOR   0400            74  260/  4/  8   N/A
CALUMET HARBOR   0300            75                N/A
BURNS HARBOR     0300            67  250/  7/ 12 1016.3R
MICHIGAN CITY    0300            68  220/  9/ 11   N/A
$$

ABBREVIATIONS USED IN REMARKS
   TC - TEMPERATURE IN CELSIUS
  WCI - WIND CHILL INDEX
   HX - HEAT INDEX
  VSB - VISIBILITY
$$




USA.gov is the U.S. government's official web portal to all federal, state and local government web resources and services.